[[{"header":{"parameterUnit":"m.s-1","parameterCategory":1,"la1":30.2991,"la2":30.254,"lo1":-89.0895,"lo2":-89.0444,"dy":0.0017,"dx":0.0017,"nx":28,"ny":28,"refTime":"2025-04-08T21:00:00:Z","depth":0,"parameterNumber":2,"parameterNumberName":"U-component_of_WINDS"},"data":[0,0,0,0,0,0,0,0,0,0,0,0,0,0,0,0,0,0,0,0,0,0,0,0,0,0,0,0,0,0,0,0,0,0,0,0,0,0,0,0,0,0,0,0,0,0,0,0,0,0,0,0,0,0,0,0,0,0,0.5495,0.5496,0,0.5533,0.5533,0.5533,0.5569,0.557,0.557,0.557,0.5608,0.5609,0.561,0,0,0,0,0,0,0,0,0,0,0,0,0,0.5456,0.5456,0.5495,0.5496,0.5496,0.5532,0.5533,0.5534,0.5569,0.557,0.557,0.5571,0.5608,0.5609,0.561,0,0,0,0,0,0,0,0,0,0,0,0,0,0.5481,0.5457,0.5495,0.5518,0.5521,0.5532,0.5533,0.5534,0.5569,0.557,0.557,0.5571,0.5608,0.5609,0.561,0.5601,0,0,0.5612,0.5613,0,0,0,0,0,0,0,0,0.5479,0.5482,0.5515,0.5517,0.552,0.5547,0.5533,0.5556,0.5569,0.5551,0.5571,0.5571,0.5587,0.559,0.5596,0.5603,0.5605,0.5613,0.5613,0.5613,0.5614,0,0,0,0,0,0,0,0.5478,0.5481,0.551,0.5515,0.5518,0.5527,0.5531,0.5538,0.5565,0.5552,0.5555,0.5559,0.5589,0.5595,0.5597,0.5605,0.5613,0.5613,0.5614,0.5614,0.5609,0.5608,0,0,0,0,0,0,0.5472,0.5479,0.5509,0.5511,0.5501,0.5527,0.5532,0.5537,0.5565,0.557,0.5558,0.556,0.5593,0.5596,0.5598,0.5591,0.5613,0.5614,0.5615,0.561,0.5609,0.5608,0,0,0,0,0,0,0.5471,0.5475,0.5507,0.5496,0.5501,0.5527,0.5533,0.5538,0.5544,0.5569,0.5574,0.5559,0.5593,0.5597,0.5601,0.5592,0.5615,0.5615,0.561,0.5609,0.5608,0.5575,0,0,0,0,0,0,0.547,0.5474,0.5471,0.5496,0.5501,0.5509,0.5532,0.5538,0.5545,0.5548,0.5571,0.5576,0.5594,0.5599,0.5601,0.5594,0.5616,0.5611,0.561,0.5609,0.5577,0.5573,0.557,0,0,0,0,0,0.5469,0.546,0.5471,0.5474,0.5498,0.5508,0.5512,0.5533,0.5544,0.5541,0.5558,0.5575,0.5593,0.5599,0.5602,0.5595,0.5612,0.561,0.5609,0.5579,0.5574,0.557,0,0,0,0,0,0,0.5434,0.5464,0.5476,0.5475,0.5489,0.5514,0.5512,0.5527,0.5538,0.5541,0.5567,0.5572,0.5572,0.5584,0.559,0.5589,0.5605,0.5604,0.5581,0.5576,0.5573,0.557,0.5617,0,0,0,0,0,0.5426,0.5432,0.5458,0.5454,0.5461,0.5485,0.549,0.5505,0.5521,0.5527,0.5544,0.5558,0.5567,0.5573,0.5582,0.5579,0.5585,0.5576,0.5572,0.5569,0.5568,0.5567,0.5564,0.5603,0.5603,0.5603,0,0,0.541,0.5427,0.5429,0.5448,0.546,0.5466,0.549,0.5494,0.5499,0.5528,0.5532,0.5545,0.5563,0.5563,0.5564,0.5573,0.5558,0.5567,0.5564,0.5565,0.5565,0.5562,0.5558,0.5602,0.5602,0.5603,0,0,0.5383,0.5397,0.5396,0.5408,0.5427,0.5443,0.5443,0.5466,0.5476,0.5481,0.5503,0.5509,0.5523,0.5535,0.5543,0.5522,0.5538,0.5525,0.5505,0.5505,0.5502,0.5499,0.5492,0.5489,0.5523,0.5523,0.5523,0,0.5361,0.537,0.5393,0.5397,0.5405,0.5431,0.5431,0.5441,0.5462,0.5467,0.5477,0.5496,0.551,0.5514,0.5509,0.5514,0.5515,0.5522,0.55,0.5498,0.5496,0.5489,0.5486,0.5521,0.5522,0.5522,0.5522,0,0.5342,0.5348,0.5345,0.5365,0.5372,0.5374,0.5397,0.5402,0.5417,0.5432,0.5437,0.5455,0.5469,0.5471,0.5485,0.5477,0.5482,0.5495,0.5512,0.549,0.5484,0.5481,0.5519,0.5519,0.552,0.552,0,0,0.5294,0.5327,0.5325,0.5335,0.5358,0.5363,0.5366,0.538,0.5384,0.5397,0.5401,0.5413,0.5426,0.5435,0.5451,0.545,0.5433,0.5464,0.5465,0.5458,0.5425,0.5415,0.5411,0.5444,0.5443,0.5443,0.5424,0,0.5271,0.5278,0.5299,0.53,0.5306,0.5331,0.5334,0.5349,0.5363,0.5371,0.5387,0.5395,0.5411,0.5417,0.5418,0.5435,0.5427,0.5436,0.5447,0.5447,0.5442,0.5408,0.5397,0.5378,0.5421,0.5421,0.5421,0,0.5246,0.5258,0.5259,0.5282,0.5286,0.5288,0.5302,0.5309,0.5326,0.5337,0.5347,0.5365,0.537,0.5386,0.5393,0.5399,0.5405,0.5414,0.5414,0.5416,0.5433,0.5409,0.5372,0.5369,0.5417,0.5418,0.5418,0,0.5211,0.5228,0.5231,0.5238,0.5265,0.5266,0.5278,0.5296,0.5303,0.5315,0.532,0.5333,0.5341,0.535,0.5372,0.5381,0.5377,0.5394,0.5386,0.5385,0.5383,0.5383,0.5347,0.5387,0.5387,0.5387,0.5387,0,0.5184,0.5184,0.5216,0.5217,0.5218,0.5243,0.5242,0.5256,0.5272,0.5277,0.53,0.5305,0.5332,0.534,0.5357,0.536,0.5363,0.5372,0.5376,0.537,0.5369,0.5374,0.5376,0.5386,0.5386,0.5387,0.5387,0,0.5145,0.5167,0.5172,0.5197,0.5203,0.5203,0.5225,0.5228,0.5244,0.525,0.5253,0.5278,0.5288,0.531,0.5326,0.5338,0.5337,0.5345,0.5331,0.5334,0.5325,0.5325,0.529,0.5287,0.5329,0.5329,0.5328,0,0.5126,0.5127,0.5152,0.5157,0.5168,0.5176,0.5183,0.5208,0.5215,0.5234,0.5235,0.5247,0.5258,0.5273,0.5293,0.5305,0.5314,0.5301,0.5316,0.531,0.5314,0.5314,0.5314,0.5297,0.5297,0.5296,0.5296,0,0.5091,0.5102,0.5111,0.5125,0.5133,0.5145,0.5158,0.5161,0.5189,0.5195,0.5206,0.5215,0.5231,0.5243,0.5259,0.5271,0.5288,0.5291,0.529,0.5283,0.5275,0.528,0.5322,0.5292,0.5292,0.5292,0.5293,0.5293,0.5062,0.5063,0.5082,0.5092,0.5105,0.5116,0.5121,0.5137,0.5147,0.5162,0.5176,0.5186,0.5203,0.5226,0.5237,0.5245,0.5254,0.5252,0.5251,0.5251,0.5248,0.5274,0.5248,0.5248,0.5248,0.5249,0.5249,0,0.5027,0.5041,0.505,0.5068,0.5076,0.5092,0.5107,0.5113,0.5121,0.5136,0.5147,0.5159,0.5171,0.5192,0.5205,0.5208,0.5216,0.521,0.521,0.5213,0.5239,0.5239,0.5204,0.5204,0.5204,0.5204,0.5204,0.5204,0.5011,0.5014,0.5027,0.5038,0.5051,0.5061,0.5068,0.508,0.5092,0.5105,0.5115,0.5128,0.5146,0.5161,0.5173,0.5178,0.5182,0.5174,0.5183,0.5207,0.5211,0.5215,0.5215,0.5175,0.5175,0.5156,0.5156,0.5155]},{"header":{"parameterUnit":"m.s-1","parameterCategory":1,"la1":30.2991,"la2":30.254,"lo1":-89.0895,"lo2":-89.0444,"dy":0.0017,"dx":0.0017,"nx":28,"ny":28,"refTime":"2025-04-08T21:00:00:Z","depth":0,"parameterNumber":3,"parameterNumberName":"V-component_of_WINDS"},"data":[0,0,0,0,0,0,0,0,0,0,0,0,0,0,0,0,0,0,0,0,0,0,0,0,0,0,0,0,0,0,0,0,0,0,0,0,0,0,0,0,0,0,0,0,0,0,0,0,0,0,0,0,0,0,0,0,0,0,-0.782,-0.7819,0,-0.7731,-0.773,-0.7729,-0.7677,-0.7676,-0.7676,-0.7676,-0.7584,-0.7582,-0.758,0,0,0,0,0,0,0,0,0,0,0,0,0,-0.7949,-0.7946,-0.782,-0.7819,-0.7818,-0.7731,-0.773,-0.7728,-0.7677,-0.7676,-0.7676,-0.7676,-0.7585,-0.7582,-0.758,0,0,0,0,0,0,0,0,0,0,0,0,0,-0.7879,-0.7946,-0.782,-0.7782,-0.7777,-0.7731,-0.773,-0.7728,-0.7677,-0.7676,-0.7676,-0.7676,-0.7586,-0.7583,-0.7579,-0.7565,0,0,-0.7569,-0.7567,0,0,0,0,0,0,0,0,-0.7883,-0.7875,-0.7788,-0.7784,-0.7779,-0.7714,-0.7741,-0.7673,-0.7677,-0.7715,-0.7676,-0.7676,-0.7628,-0.7621,-0.7605,-0.756,-0.7556,-0.7569,-0.7567,-0.7565,-0.7564,0,0,0,0,0,0,0,-0.7888,-0.7878,-0.7785,-0.7787,-0.7782,-0.777,-0.7759,-0.7728,-0.7674,-0.7712,-0.7708,-0.7698,-0.7625,-0.7608,-0.7602,-0.7555,-0.7569,-0.7566,-0.7564,-0.7562,-0.7498,-0.7498,0,0,0,0,0,0,-0.7899,-0.7883,-0.7787,-0.7782,-0.7832,-0.7768,-0.7756,-0.7736,-0.7674,-0.7665,-0.7698,-0.7696,-0.7614,-0.7606,-0.7599,-0.758,-0.7565,-0.7562,-0.756,-0.7498,-0.7498,-0.7498,0,0,0,0,0,0,-0.7902,-0.7891,-0.7791,-0.7831,-0.7818,-0.7766,-0.7743,-0.7734,-0.7717,-0.7664,-0.7654,-0.769,-0.7614,-0.7604,-0.7574,-0.7576,-0.756,-0.7557,-0.7497,-0.7498,-0.7498,-0.7541,0,0,0,0,0,0,-0.7906,-0.7892,-0.7885,-0.7831,-0.7816,-0.7767,-0.7743,-0.7732,-0.7711,-0.7707,-0.7654,-0.7645,-0.7613,-0.758,-0.7571,-0.7571,-0.7555,-0.7497,-0.7497,-0.7498,-0.7539,-0.7543,-0.7546,0,0,0,0,0,-0.7911,-0.79,-0.7885,-0.7874,-0.7806,-0.7767,-0.7758,-0.7721,-0.7711,-0.7705,-0.7672,-0.7647,-0.7577,-0.7577,-0.7567,-0.7566,-0.7496,-0.7497,-0.7498,-0.7537,-0.7542,-0.7546,0,0,0,0,0,0,-0.7954,-0.7892,-0.7875,-0.7846,-0.7813,-0.7759,-0.7749,-0.7726,-0.7694,-0.7692,-0.7647,-0.7636,-0.7611,-0.7586,-0.7586,-0.7551,-0.7534,-0.7533,-0.7568,-0.7572,-0.7575,-0.7582,-0.7552,0,0,0,0,0,-0.796,-0.7934,-0.7881,-0.7861,-0.7846,-0.7801,-0.7782,-0.7757,-0.772,-0.7705,-0.767,-0.7636,-0.7606,-0.7587,-0.7557,-0.7535,-0.7525,-0.753,-0.7534,-0.7537,-0.7536,-0.7526,-0.7528,-0.7501,-0.7501,-0.7501,0,0,-0.7973,-0.7936,-0.7921,-0.7869,-0.784,-0.7815,-0.7788,-0.7762,-0.7744,-0.7701,-0.7672,-0.7645,-0.7604,-0.758,-0.7567,-0.7557,-0.7542,-0.7537,-0.754,-0.7538,-0.7527,-0.753,-0.7532,-0.7501,-0.7501,-0.7501,0,0,-0.7983,-0.7951,-0.7933,-0.7905,-0.7862,-0.7833,-0.7829,-0.7779,-0.776,-0.7731,-0.7699,-0.7677,-0.7627,-0.76,-0.7579,-0.7585,-0.7562,-0.7576,-0.7594,-0.7585,-0.7587,-0.7588,-0.7593,-0.7594,-0.7576,-0.7576,-0.7576,0,-0.8003,-0.7964,-0.7926,-0.7903,-0.7882,-0.7844,-0.7826,-0.7801,-0.7751,-0.7738,-0.7728,-0.7667,-0.7636,-0.7606,-0.7608,-0.7592,-0.7587,-0.7582,-0.759,-0.7591,-0.7592,-0.7595,-0.7597,-0.7578,-0.7578,-0.7578,-0.7577,0,-0.7993,-0.7967,-0.7957,-0.7911,-0.7889,-0.7869,-0.7829,-0.7811,-0.7789,-0.7762,-0.7734,-0.7697,-0.766,-0.7651,-0.7628,-0.7619,-0.7615,-0.7598,-0.7581,-0.7597,-0.76,-0.7601,-0.7581,-0.758,-0.758,-0.7579,0,0,-0.8024,-0.7961,-0.7958,-0.7939,-0.7891,-0.787,-0.785,-0.7815,-0.7802,-0.7769,-0.7752,-0.7713,-0.7698,-0.7675,-0.7649,-0.7641,-0.7651,-0.7626,-0.7624,-0.7633,-0.7642,-0.7656,-0.7658,-0.7636,-0.7636,-0.7636,-0.7646,0,-0.8029,-0.7989,-0.7957,-0.793,-0.7907,-0.7873,-0.7856,-0.7826,-0.78,-0.7778,-0.775,-0.7724,-0.7705,-0.7692,-0.7682,-0.7652,-0.7653,-0.7651,-0.7621,-0.762,-0.7633,-0.7659,-0.7672,-0.7683,-0.7647,-0.7647,-0.7647,0,-0.8027,-0.7998,-0.797,-0.7929,-0.7918,-0.7902,-0.787,-0.7848,-0.7815,-0.7797,-0.7774,-0.7748,-0.7727,-0.7713,-0.7684,-0.7684,-0.767,-0.7654,-0.7654,-0.765,-0.7635,-0.7657,-0.7685,-0.7688,-0.7648,-0.7648,-0.7648,0,-0.8055,-0.8009,-0.7987,-0.7971,-0.7922,-0.7913,-0.7892,-0.7858,-0.784,-0.7812,-0.7801,-0.7771,-0.7754,-0.7732,-0.7699,-0.7692,-0.7675,-0.7658,-0.7661,-0.7662,-0.7659,-0.7659,-0.7687,-0.7649,-0.7649,-0.7649,-0.7649,0,-0.8063,-0.8048,-0.8,-0.7986,-0.797,-0.7933,-0.7918,-0.7894,-0.7865,-0.7847,-0.7816,-0.78,-0.7758,-0.7738,-0.7712,-0.7694,-0.7686,-0.7673,-0.7666,-0.7676,-0.7678,-0.7666,-0.7665,-0.7649,-0.7649,-0.7649,-0.7649,0,-0.8091,-0.8058,-0.8033,-0.7989,-0.7978,-0.7968,-0.7931,-0.7918,-0.7893,-0.7872,-0.7864,-0.7825,-0.78,-0.7766,-0.7729,-0.7713,-0.7699,-0.7687,-0.771,-0.7706,-0.7713,-0.7713,-0.7734,-0.7736,-0.7696,-0.7697,-0.7697,0,-0.8098,-0.8086,-0.8043,-0.803,-0.801,-0.7988,-0.7972,-0.7937,-0.7921,-0.7884,-0.7876,-0.785,-0.7826,-0.7789,-0.7757,-0.773,-0.7719,-0.7728,-0.7714,-0.7726,-0.7721,-0.7723,-0.7723,-0.7732,-0.7732,-0.7733,-0.7733,0,-0.8115,-0.8101,-0.8078,-0.8051,-0.8032,-0.8008,-0.7983,-0.7974,-0.7935,-0.7919,-0.7894,-0.7876,-0.7842,-0.7816,-0.7786,-0.7765,-0.7744,-0.7738,-0.7738,-0.7748,-0.7762,-0.7757,-0.772,-0.7737,-0.7737,-0.7737,-0.7736,-0.7736,-0.8133,-0.8123,-0.8092,-0.8069,-0.8047,-0.8026,-0.8012,-0.7987,-0.7966,-0.7936,-0.7917,-0.7894,-0.7865,-0.7822,-0.7803,-0.7785,-0.7776,-0.7775,-0.7775,-0.7776,-0.778,-0.7765,-0.778,-0.7779,-0.7779,-0.7779,-0.7779,0,-0.815,-0.813,-0.8109,-0.8077,-0.806,-0.8042,-0.8015,-0.8002,-0.7982,-0.7957,-0.7936,-0.791,-0.7886,-0.7854,-0.7829,-0.7821,-0.7811,-0.7816,-0.7816,-0.7813,-0.7789,-0.7792,-0.7825,-0.7825,-0.7825,-0.7825,-0.7825,-0.7825,-0.8157,-0.8139,-0.8122,-0.8094,-0.8074,-0.8052,-0.8039,-0.802,-0.8,-0.7973,-0.7954,-0.7934,-0.7907,-0.788,-0.7858,-0.785,-0.7843,-0.7851,-0.784,-0.7818,-0.7814,-0.781,-0.7813,-0.7849,-0.785,-0.7865,-0.7865,-0.7865]}]]